sat.trackr.live / text

‹ back to catalog

STARLINK-36141

NORAD 67057 · 2025-294AD

PAYLOAD ACTIVE UNKNOWN

§ Identity

Operator
Country
US
Launch date
2025-12-11
Launch site
AFETR
Launch vehicle
Mass (kg)
RCS (m²)

Purposes: comms

External: N2YO · Heavens-Above · Gunter

§ Orbital elements

Epoch: 2026-09-20T08:38:47.842944Z

Period
94.27 min
Inclination
43.0013°
Eccentricity
0.0001336
Mean motion
15.27590353 rev/d
Perigee alt
482.1 km
Apogee alt
483.9 km
Semi-major
6,861.2 km
B*
3.8357e-4
RAAN
18.4959°
Arg perigee
277.7081°
Mean anomaly
82.3619°
Rev number
4,457

§ Raw data

STARLINK-361411 67057U 25294AD  26263.36027596  .00010311  00000+0  38357-3 0  99982 67057  43.0013  18.4959 0001336 277.7081  82.3619 15.27590353 44578

JSON: /api/v1/satellites/67057 · /tle

For live sub-satellite position, see the globe view (requires WebGL).

§ Visibility from observer

Set your observer location to see the next 7 days of passes ≥ 10°. The values pass through the URL so the page stays shareable.

No JS? Fill the form by hand. The geolocation button needs JavaScript.